Location: Castle
(40.7167°S, 175.9500°E)
Time: 03:56:46
(UTC+00:00)

AQUARIUS - Pass Details

Date: 04 August 2024
Orbit: 640 x 643 km, 98.0° (Epoch: 07 September)

Event Time Altitude Azimuth Distance (km) Brightness Sun altitude
Rises 18:04:06 0° 9° (N) 2,938 7.8 -14.3°
Reaches altitude 10° 18:06:18 10° 6° (N) 2,038 6.9 -13.9°
Maximum altitude 18:10:44 70° 282° (WNW) 692 4.1 -13.1°
Drops below altitude 10° 18:15:14 10° 197° (SSW) 2,069 6.5 -12.3°
Sets 18:17:29 0° 195° (SSW) 2,988 7.3 -11.9°
